Regional Weather Roundup
Issued by NWS Wilmington, NC

Home | Current Version | Previous Version | Text Only | Print | Product List | Glossary On
Versions: 1 2 3 4 5 6 7 8 9 10 11 12 13 14 15 16 17 18 19 20 21 22 23 24 25 26 27
000
ASUS42 KILM 220613
RWRILM
RWRILM
REGIONAL HOURLY WEATHER ROUNDUP
NATIONAL WEATHER SERVICE WILMINGTON NC
200 AM EDT FRI SEP 22 2017

NOTE: "FAIR" INDICATES FEW OR NO CLOUDS BELOW 12,000 FEET WITH NO
SIGNIFICANT WEATHER AND/OR OBSTRUCTIONS TO VISIBILITY.

...............WFO WILMINGTON COUNTY WARNING AREA...............

......COASTAL NC AND SC COUNTIES......

CITY           SKY/WX    TMP DP  RH WIND       PRES   REMARKS
WILMINGTON     CLOUDY    69  67  93 CALM      30.03S
N MYRTLE BEACH CLEAR     69  67  93 NE5       30.03R
MYRTLE BEACH   CLEAR     70  68  93 NE6       30.04R

......INLAND NC AND SC COUNTIES.......

CITY           SKY/WX    TMP DP  RH WIND       PRES   REMARKS
LUMBERTON      CLEAR     65  65 100 CALM      30.04S FOG
ELIZABETHTOWN  NOT AVBL
WHITEVILLE     CLEAR     67  66  98 CALM      30.03F FOG
FLORENCE       CLEAR     68  67  96 CALM      30.04S
DARLINGTON     CLEAR     68  67  96 CALM      30.05S
KINGSTREE      FAIR      63  63 100 CALM      30.04R
HARTSVILLE     FAIR      66  64  94 CALM      30.04S
BENNETTSVILLE  FAIR      66  66 100 CALM      30.04F FOG
CONWAY         FAIR      66  66 100 CALM      30.04S FOG
GEORGETOWN     FAIR      68  68 100 CALM      30.03S FOG
MARION         FAIR      66  64  94 N5        30.04S

....................REST OF NORTH CAROLINA......................

.........EASTERN NC.........

CITY           SKY/WX    TMP DP  RH WIND       PRES   REMARKS
CAPE HATTERAS  CLEAR     68  67  96 E3        30.04F
JACKSONVILLE   PTCLDY    67  66  97 CALM      30.05S FOG
MOREHEAD CITY  CLEAR     70  70 100 CALM      30.04S
KENANSVILLE    CLEAR     64  63  94 CALM      30.05S FOG
NEW BERN       FOG       66  66 100 CALM      30.05S VSB 1
ELIZABETH CITY CLEAR     67  67 100 CALM      30.05F

.........CENTRAL NC.........

CITY           SKY/WX    TMP DP  RH WIND       PRES   REMARKS
RALEIGH DURHAM PTCLDY    64  64 100 CALM      30.07S
ROCKY MOUNT    FOG       65  65 100 NE3       30.05F VSB 1/4
ROANOKE RAPIDS NOT AVBL
FAYETTEVILLE   CLEAR     68  66  93 CALM      30.05R
HOFFMAN        CLEAR     66  65  97 CALM      30.05S

.........WESTERN NC.........

CITY           SKY/WX    TMP DP  RH WIND       PRES   REMARKS
CHARLOTTE      CLEAR     72  66  81 E3        30.07S
GREENSBORO     PTCLDY    70  67  90 CALM      30.08S
HICKORY        NOT AVBL
BOONE          NOT AVBL
ASHEVILLE      NOT AVBL

.....................REST OF SOUTH CAROLINA.....................

.........EASTERN SC.........

CITY           SKY/WX    TMP DP  RH WIND       PRES   REMARKS
CHARLESTON     PTCLDY    70  67  90 CALM      30.02S
BEAUFORT MCAS  CLEAR     71  71 100 NW3       30.01S
HILTON HEAD    CLEAR     73  73 100 CALM      30.01S

.........CENTRAL SC.........

CITY           SKY/WX    TMP DP  RH WIND       PRES   REMARKS
COLUMBIA       PTCLDY    73  69  87 E6        30.02R
ORANGEBURG     CLEAR     70  66  87 CALM      30.04R
SUMTER SHAW    PTCLDY    68  65  90 CALM      30.02S

.........WESTERN SC.........

CITY           SKY/WX    TMP DP  RH WIND       PRES   REMARKS
GREENVILLE     NOT AVBL
ROCK HILL        N/A    N/A N/A N/A MISG      30.07S
ANDERSON       CLEAR     71  67  87 NE5       30.05S
CLEMSON        NOT AVBL
GREENWOOD      CLEAR     67  67 100 N3        30.05S


...................COASTAL AND OFFSHORE REPORTS..................

................LOCAL PIERS AND NC RESERVE................


STATION/POSITION TIME  SKY/WX   TEMP    WIND        PRES    VSBY
                                AIR SEA DIR/SP/G
                 (UTC)          (F)     (DEG/KT/KT) (MB)    (MI)
JOHNY MRCER PIER 0542                    10/  6/  8 1016.1F
NC RESRV MASNBRO 0445            69        CALM     1017.0
OCEAN CREST PIER NOT AVBL
SPRINGMAID  PIER 0542                               1016.1R


................COASTAL AND OFFSHORE BUOYS................


STATION/POSITION TIME  SKY/WX   TEMP    WIND        PRES    VSBY
                                AIR SEA DIR/SP/G
                 (UTC)          (F)     (DEG/KT/KT) (MB)    (MI)
DIMNDSHOAL 41025 0550            75 75   30/  6/  8 1016.9F
WVE H/P(F/S)=  5/11 SWL H/P/D(F/S/D)=  5/ 80/11

CAPE LOOKOUT     0600            77      80/  9/ 10 1016.7F
ONSLOW BAY 41036 NOT AVBL
ONSLOW BAY 41064 0508            79      70/  8/ 12 1016.8F
ONSLOW BAY 41159 NOT AVBL
MASNBO INL 41110 0559               78                N/A
WVE H/P(F/S)=  2/11 SWL H/P/D(F/S/D)=  2/120/11

WILM HARBR 41108 0600               80                N/A
WVE H/P(F/S)=  2/11 SWL H/P/D(F/S/D)=  2/130/11

27SE WRITB 41037 0508            78 80   60/ 10/ 12 1016.9S
FRYING PAN 41013 0550            80 82   80/  8/ 10 1016.0F
WVE H/P(F/S)=  3/11 SWL H/P/D(F/S/D)=  3/110/11

SUNST NRSH 41024 0508            71 80   50/  8/ 10 1016.7S
CAPRS NRSH 41029 0508            77 81  150/  6/  8 1016.3F
EDISTO     41004 0550            80 82  160/  4/  4 1015.7F
WVE H/P(F/S)=  3/10 SWL H/P/D(F/S/D)=  3/120/10



..........OFFSHORE BUOYS BEYOND 100 NM OFFSHORE...........
.....IN A TRIANGLE---HAT TO BERMUDA TO BAHAMAS TO HAT.....


STATION/POSITION TIME  SKY/WX   TEMP    WIND        PRES    VSBY
                                AIR SEA DIR/SP/G
                 (UTC)          (F)     (DEG/KT/KT) (MB)    (MI)
150E HAT   41001 NOT AVBL
W BERMUDA  41048 0600            78 80  290/  4/  6 1016.2
ATLANTIC S 41049 0550            82 83  110/ 12/ 14 1016.8F
WVE H/P(F/S)=  7/11 SWL H/P/D(F/S/D)=  7/330/11

E BAHAMAS  41046 0600            83 84   90/ 23/ 31 1009.5
NE BAHAMAS 41047 0600            82 84   90/ 14/ 17 1013.9
120E CANVRL41010 0550                    70/ 12/ 16 1014.5F
WVE H/P(F/S)=  5/11 SWL H/P/D(F/S/D)=  3/11


END




USA.gov is the U.S. government's official web portal to all federal, state and local government web resources and services.